, AK

(GMT )
Eureka

Weather History for PAZK - October, 2013

Change the Weather History Date:

Monday, October 21, 2013

  Actual Average Record
Temperature  
Mean Temperature 30 °F -  
Max Temperature 35 °F 22 °F 41 °F (2002)
Min Temperature 24 °F 13 °F 0 °F (1996)
Degree Days  
Heating Degree Days 36    
Moisture  
Dew Point 19 °F    
Average Humidity 66    
Maximum Humidity 93    
Minimum Humidity 52    
Precipitation  
Precipitation 0.00 in - - ()
Sea Level Pressure  
Sea Level Pressure 29.94 in    
Wind  
Wind Speed 2 mph (NE)    
Max Wind Speed 8 mph    
Max Gust Speed -    
Visibility 10 miles    
Events      
Averages and records for this station are not official NWS values.
T = Trace of Precipitation, MM = Missing Value Source: NWS Daily Summary

Daily Weather History Graph

Daily Weather History Graph

Search for Another Location

Airport or City:

Trip Planner

Search our weather history database for the weather conditions in past years. The results will help you decide how hot, cold, wet, or windy it might be!

Date:

Astronomy

Oct. 21, 2013 Rise Set
Actual Time 8:50 AM AKDT 6:14 PM AKDT
Civil Twilight 8:04 AM AKDT 7:00 PM AKDT
Nautical Twilight 7:12 AM AKDT 7:52 PM AKDT
Astronomical Twilight 6:21 AM AKDT 8:43 PM AKDT
Moon 7:25 PM AKDT (10/21) 12:22 PM AKDT (10/21)
Length of Visible Light 10h 56m
Length of Day
9h 24m
Waning Gibbous, 92% of the Moon is Illuminated
Oct 21
Waning Gibbous
Oct 26
Last Quarter
Nov 3
New
Nov 9
First Quarter
Nov 17
Full

Hourly Weather History & Observations

Time (AKDT) Temp. Windchill Dew Point Humidity Pressure Visibility Wind Dir Wind Speed Gust Speed Precip Events Conditions
12:16 AM 28.4 °F - 15.8 °F 59% 29.88 in 10.0 mi Calm Calm - N/A   Clear
12:36 AM 28.4 °F 23.3 °F 17.6 °F 64% 29.88 in 10.0 mi North 4.6 mph - N/A   Clear
12:56 AM 28.4 °F 24.6 °F 17.6 °F 64% 29.88 in 10.0 mi North 3.5 mph - N/A   Clear
1:16 AM 28.4 °F 24.6 °F 17.6 °F 64% 29.88 in 10.0 mi NNE 3.5 mph - N/A   Clear
1:36 AM 28.4 °F - 17.6 °F 64% 29.88 in 10.0 mi Calm Calm - N/A   Clear
1:56 AM 28.4 °F - 15.8 °F 59% 29.88 in 10.0 mi Calm Calm - N/A   Clear
2:16 AM 26.6 °F 22.6 °F 14.0 °F 59% 29.89 in 10.0 mi ENE 3.5 mph - N/A   Clear
2:36 AM 28.4 °F 24.6 °F 15.8 °F 59% 29.88 in 10.0 mi ENE 3.5 mph - N/A   Clear
2:56 AM 28.4 °F 21.2 °F 15.8 °F 59% 29.88 in 10.0 mi NE 6.9 mph - N/A   Clear
3:16 AM 28.4 °F 21.2 °F 15.8 °F 59% 29.88 in 10.0 mi NE 6.9 mph - N/A   Clear
3:36 AM 28.4 °F 24.6 °F 15.8 °F 59% 29.89 in 10.0 mi NE 3.5 mph - N/A   Clear
3:56 AM 28.4 °F - 15.8 °F 59% 29.88 in 10.0 mi Calm Calm - N/A   Clear
4:16 AM 28.4 °F - 17.6 °F 64% 29.88 in 10.0 mi Calm Calm - N/A   Partly Cloudy
4:36 AM 26.6 °F - 15.8 °F 64% 29.88 in 10.0 mi Calm Calm - N/A   Partly Cloudy
4:56 AM 28.4 °F 24.6 °F 15.8 °F 59% 29.88 in 10.0 mi NNE 3.5 mph - N/A   Partly Cloudy
5:16 AM 26.6 °F - 15.8 °F 64% 29.88 in 10.0 mi Calm Calm - N/A   Clear
5:36 AM 26.6 °F - 17.6 °F 69% 29.89 in 10.0 mi Calm Calm - N/A   Clear
5:56 AM 26.6 °F - 17.6 °F 69% 29.89 in 10.0 mi Calm Calm - N/A   Scattered Clouds
6:16 AM 24.8 °F - 17.6 °F 74% 29.89 in 10.0 mi Calm Calm - N/A   Mostly Cloudy
6:36 AM 24.8 °F - 17.6 °F 74% 29.89 in 10.0 mi Calm Calm - N/A   Mostly Cloudy
6:56 AM 24.8 °F - 15.8 °F 69% 29.89 in 10.0 mi Calm Calm - N/A   Overcast
7:16 AM 24.8 °F - 14.0 °F 64% 29.89 in 10.0 mi Calm Calm - N/A   Mostly Cloudy
7:36 AM 24.8 °F 20.5 °F 15.8 °F 69% 29.90 in 10.0 mi NE 3.5 mph - N/A   Mostly Cloudy
7:56 AM 24.8 °F - 17.6 °F 74% 29.91 in 10.0 mi Calm Calm - N/A   Scattered Clouds
8:16 AM 24.8 °F - 17.6 °F 74% 29.91 in 10.0 mi Calm Calm - N/A   Scattered Clouds
8:36 AM 24.8 °F - 17.6 °F 74% 29.92 in 10.0 mi Calm Calm - N/A   Mostly Cloudy
8:56 AM 24.8 °F - 17.6 °F 74% 29.92 in 10.0 mi Calm Calm - N/A   Overcast
9:16 AM 26.6 °F - 17.6 °F 69% 29.92 in 10.0 mi Calm Calm - N/A   Mostly Cloudy
9:36 AM 26.6 °F 21.2 °F 17.6 °F 69% 29.92 in 10.0 mi West 4.6 mph - N/A   Scattered Clouds
9:56 AM 28.4 °F - 17.6 °F 64% 29.93 in 10.0 mi Calm Calm - N/A   Partly Cloudy
10:16 AM 28.4 °F - 17.6 °F 64% 29.93 in 10.0 mi Calm Calm - N/A   Clear
10:36 AM 28.4 °F - 17.6 °F 64% 29.93 in 10.0 mi Calm Calm - N/A   Clear
10:56 AM 28.4 °F 24.6 °F 17.6 °F 64% 29.94 in 10.0 mi South 3.5 mph - N/A   Clear
11:16 AM 30.2 °F - 17.6 °F 60% 29.95 in 10.0 mi Calm Calm - N/A   Clear
11:36 AM 30.2 °F - 19.4 °F 64% 29.96 in 10.0 mi Calm Calm - N/A   Clear
11:56 AM 33.8 °F - 19.4 °F 56% 29.96 in 10.0 mi Calm Calm - N/A   Partly Cloudy
12:16 PM 32.0 °F - 19.4 °F 60% 29.96 in 10.0 mi Calm Calm - N/A   Mostly Cloudy
12:36 PM 33.8 °F - 19.4 °F 56% 29.96 in 10.0 mi Calm Calm - N/A   Mostly Cloudy
12:56 PM 33.8 °F - 19.4 °F 56% 29.97 in 10.0 mi Calm Calm - N/A   Mostly Cloudy
1:16 PM 33.8 °F - 19.4 °F 56% 29.97 in 10.0 mi Calm Calm - N/A   Scattered Clouds
1:36 PM 33.8 °F 29.6 °F 19.4 °F 56% 29.97 in 10.0 mi SSE 4.6 mph - N/A   Mostly Cloudy
1:56 PM 35.6 °F - 19.4 °F 52% 29.97 in 10.0 mi Calm Calm - N/A   Mostly Cloudy
2:16 PM 35.6 °F 32.8 °F 21.2 °F 56% 29.97 in 10.0 mi SSE 3.5 mph - N/A   Overcast
2:36 PM 35.6 °F 32.8 °F 19.4 °F 52% 29.97 in 10.0 mi SE 3.5 mph - N/A   Mostly Cloudy
2:56 PM 35.6 °F 31.7 °F 19.4 °F 52% 29.97 in 10.0 mi SE 4.6 mph - N/A   Clear
3:16 PM 35.6 °F 31.7 °F 19.4 °F 52% 29.98 in 10.0 mi ESE 4.6 mph - N/A   Clear
3:36 PM 35.6 °F 31.7 °F 19.4 °F 52% 29.98 in 10.0 mi SE 4.6 mph - N/A   Clear
3:56 PM 33.8 °F 30.8 °F 19.4 °F 56% 29.98 in 10.0 mi SE 3.5 mph - N/A   Clear
4:16 PM 33.8 °F 30.8 °F 19.4 °F 56% 29.98 in 10.0 mi SE 3.5 mph - N/A   Clear
4:36 PM 33.8 °F 29.6 °F 19.4 °F 56% 29.98 in 10.0 mi SE 4.6 mph - N/A   Clear
4:56 PM 33.8 °F - 19.4 °F 56% 29.98 in 10.0 mi Calm Calm - N/A   Clear
5:16 PM 33.8 °F - 19.4 °F 56% 29.98 in 10.0 mi Calm Calm - N/A   Clear
5:36 PM 33.8 °F - 19.4 °F 56% 29.98 in 10.0 mi Calm Calm - N/A   Clear
5:56 PM 32.0 °F - 19.4 °F 60% 29.98 in 10.0 mi Calm Calm - N/A   Clear
6:16 PM 30.2 °F - 19.4 °F 64% 29.98 in 10.0 mi Calm Calm - N/A   Clear
6:36 PM 30.2 °F - 19.4 °F 64% 29.99 in 10.0 mi Calm Calm - N/A   Clear
6:56 PM 28.4 °F 22.2 °F 21.2 °F 74% 29.99 in 10.0 mi NNE 5.8 mph - N/A   Clear
7:16 PM 26.6 °F 18.2 °F 21.2 °F 80% 29.98 in 10.0 mi North 8.1 mph - N/A   Clear
7:36 PM 26.6 °F 18.2 °F 21.2 °F 80% 29.99 in 10.0 mi NNE 8.1 mph - N/A   Clear
7:56 PM 26.6 °F 20.0 °F 21.2 °F 80% 29.99 in 10.0 mi NNE 5.8 mph - N/A   Clear
8:16 PM 26.6 °F 21.2 °F 21.2 °F 80% 29.99 in 10.0 mi NNE 4.6 mph - N/A   Clear
8:36 PM 26.6 °F 19.1 °F 21.2 °F 80% 29.99 in 10.0 mi NNE 6.9 mph - N/A   Clear
8:56 PM 26.6 °F 19.1 °F 21.2 °F 80% 29.99 in 10.0 mi NNE 6.9 mph - N/A   Clear
9:16 PM 26.6 °F 18.2 °F 23.0 °F 86% 29.99 in 10.0 mi NNE 8.1 mph - N/A   Clear
9:36 PM 26.6 °F 20.0 °F 21.2 °F 80% 29.99 in 10.0 mi NNE 5.8 mph - N/A   Partly Cloudy
9:56 PM 26.6 °F 20.0 °F 23.0 °F 86% 29.99 in 10.0 mi NNE 5.8 mph - N/A   Scattered Clouds
10:16 PM 26.6 °F 20.0 °F 21.2 °F 80% 30.00 in 10.0 mi NNE 5.8 mph - N/A   Clear
10:36 PM 26.6 °F 19.1 °F 23.0 °F 86% 30.00 in 10.0 mi NNE 6.9 mph - N/A   Clear
10:56 PM 26.6 °F 20.0 °F 23.0 °F 86% 30.00 in 10.0 mi NNE 5.8 mph - N/A   Clear
11:16 PM 26.6 °F 18.2 °F 23.0 °F 86% 30.00 in 10.0 mi NE 8.1 mph - N/A   Clear
11:36 PM 26.6 °F 20.0 °F 23.0 °F 86% 30.00 in 10.0 mi NNE 5.8 mph - N/A   Clear
11:56 PM 26.6 °F 20.0 °F 24.8 °F 93% 30.00 in 10.0 mi NNE 5.8 mph - N/A   Partly Cloudy